Wind_Speed
7 9 10 10 11 12 12 10 10 10 9 8 6 4 3 3 4 5 6 7 8 9 10 11 11 12 12 13 13 13 13 12 12 11 11 10 10 9 8 7 6 6 6 6 6 5 5 5 6 6 6 7 7 7 8 8 9 9 10 11 12 13 14 14 14 14 14 15 15 16 16 16 16 15 15 15 15 15 15 15 15 15 14 14 14
5 8 10 11 12 13 14 12 11 10 9 8 6 5 3 3 3 4 5 6 7 8 10 11 11 11 11 11 12 12 12 12 11 11 11 10 10 9 9 8 7 7 7 7 6 6 5 5 5 6 6 6 7 7 7 8 8 9 10 11 13 13 13 13 14 14 14 14 14 15 15 16 15 14 14 14 14 15 15 15 15 15 15 15 15
5 7 10 11 13 14 15 13 12 10 9 8 7 5 4 3 2 2 4 5 6 8 9 10 10 10 10 10 11 11 11 11 11 11 10 10 10 10 9 9 8 7 7 7 6 6 6 6 6 6 6 6 7 7 7 7 8 9 10 12 13 13 13 13 13 14 14 14 14 14 14 15 14 14 14 15 15 15 16 16 16 16 16 16 16
7 9 10 12 14 15 16 14 13 11 10 9 8 6 5 3 2 1 3 4 5 7 8 9 9 10 9 9 9 10 10 10 10 10 10 10 10 10 10 9 8 8 7 7 6 6 6 6 6 6 6 7 6 6 7 7 8 9 10 11 12 13 12 12 12 13 13 13 13 13 13 13 14 15 15 15 16 16 15 15 15 15 16 16 16
8 11 12 12 14 16 16 16 14 12 11 10 9 7 6 4 2 0 2 4 5 6 7 8 9 9 8 8 8 9 9 9 10 10 10 10 10 10 10 9 8 8 7 7 6 6 6 6 7 7 7 7 7 7 7 8 9 10 11 12 12 12 12 11 11 11 11 11 12 12 12 12 13 14 14 14 15 15 15 15 15 15 15 15 15
9 12 14 14 15 16 17 17 15 13 12 11 10 9 7 5 3 1 2 3 5 6 7 8 8 8 8 7 7 7 8 8 9 9 9 9 9 9 9 9 8 8 7 6 6 7 6 6 7 7 7 8 8 8 8 9 10 11 12 12 12 12 11 10 10 10 10 10 11 11 11 12 12 13 13 13 13 14 15 15 16 15 15 15 15
11 13 16 16 17 18 18 18 17 15 14 13 11 10 8 6 4 3 2 3 4 5 6 7 8 7 7 7 6 6 6 7 7 8 8 9 9 9 9 9 9 8 7 7 7 7 6 6 7 7 8 8 8 8 9 9 11 12 12 12 11 11 10 9 9 9 9 10 10 10 11 11 12 13 13 13 13 14 15 15 16 16 16 16 16
13 14 17 19 20 20 20 19 18 17 15 14 13 11 9 8 6 4 3 4 4 5 6 7 8 7 7 6 5 4 5 5 6 7 7 8 8 8 8 8 9 8 8 7 7 7 6 6 7 8 8 8 9 9 9 10 11 11 11 11 10 10 9 8 8 8 8 9 9 9 9 10 11 12 12 13 14 14 15 15 16 17 17 17 17
13 14 18 20 22 23 22 21 19 18 16 15 14 12 10 9 7 6 5 5 5 5 6 6 7 7 6 5 4 3 3 4 5 6 6 7 8 8 8 8 8 8 8 7 7 7 7 7 7 8 8 9 9 9 9 9 10 10 10 9 9 9 8 7 7 7 7 7 7 7 8 9 10 10 11 12 13 14 15 15 16 17 17 18 18
12 14 17 20 23 24 24 23 21 20 18 17 15 13 11 10 8 7 6 6 6 5 5 6 6 7 6 5 4 3 2 3 4 5 6 6 7 7 8 8 8 8 8 8 7 7 7 7 8 8 9 9 9 9 9 9 9 8 8 8 8 7 6 5 5 5 5 5 5 6 7 8 9 10 11 12 13 14 15 15 16 17 18 18 19
12 13 16 20 23 25 26 25 23 21 19 18 17 14 12 11 9 8 7 7 6 6 5 6 6 7 6 5 4 3 2 2 2 3 4 5 6 6 7 8 8 8 8 8 7 7 8 7 7 8 8 9 9 9 8 8 8 8 7 7 6 6 5 4 3 3 3 4 5 6 7 8 9 10 11 12 13 14 15 16 17 18 18 18 19
11 14 15 18 22 25 26 26 25 22 21 19 18 15 13 12 10 9 8 8 7 6 5 5 6 7 7 5 4 3 2 1 1 2 3 4 5 6 6 7 8 8 8 8 8 8 8 8 8 8 8 8 8 8 8 7 7 6 6 5 6 6 4 2 2 3 4 5 6 8 8 9 9 11 12 13 14 14 15 16 17 18 18 19 19
10 12 14 15 20 24 26 27 25 23 22 20 19 16 14 13 11 10 9 9 8 7 6 5 6 7 7 5 4 3 2 1 0 1 2 3 4 5 6 6 7 8 8 8 8 8 7 7 7 8 8 7 7 7 6 6 6 5 4 4 5 5 3 1 1 1 3 5 7 8 9 10 10 11 12 13 14 15 15 16 17 18 18 19 19
9 11 13 14 17 23 26 26 25 24 22 21 19 17 15 13 12 11 10 9 8 7 6 5 6 7 6 5 4 3 2 1 1 0 1 2 3 4 5 5 6 7 8 8 8 8 7 7 7 7 7 6 6 6 5 4 4 3 3 3 3 3 2 0 1 1 3 5 7 9 10 11 12 12 13 14 14 15 16 16 17 17 18 19 19
10 12 13 14 15 20 25 25 25 24 23 22 20 18 16 14 13 12 11 10 9 8 6 5 6 7 6 5 4 3 3 2 1 1 1 2 3 3 4 4 5 7 7 8 8 7 7 6 6 6 6 5 5 4 4 3 2 1 1 2 2 3 2 1 2 3 5 6 7 9 11 12 13 14 15 15 15 16 16 17 17 18 18 19 19
10 12 14 15 15 18 23 24 24 24 24 23 21 19 16 14 13 12 11 10 9 7 5 4 5 6 6 5 4 3 3 3 2 1 1 2 2 3 3 3 4 6 7 7 7 7 6 6 6 5 5 4 3 3 2 2 1 0 1 0 0 0 0 2 3 5 7 8 9 10 11 12 14 15 16 16 16 16 17 17 18 18 19 19 19
10 12 15 15 15 17 21 23 24 24 25 24 22 19 17 15 13 12 11 11 9 7 5 4 6 7 7 6 4 4 4 3 2 2 2 2 2 3 3 3 4 5 6 7 7 7 6 6 5 5 4 3 2 2 2 2 2 2 3 3 4 4 3 4 6 7 8 10 11 12 13 14 15 16 17 17 17 17 18 18 18 19 20 20 20
9 12 14 15 15 16 20 22 24 24 25 24 22 19 17 15 14 12 11 11 9 7 5 5 6 7 7 6 5 4 4 4 3 2 2 2 2 3 3 3 4 4 6 7 7 7 6 6 5 4 4 3 3 3 3 3 4 5 6 6 7 7 6 7 9 9 10 11 13 14 15 16 17 18 19 19 19 19 19 19 19 20 21 21 21
10 11 13 14 14 16 19 21 23 24 24 23 21 19 17 16 14 13 12 11 9 7 5 6 7 7 7 6 5 5 5 4 3 2 2 3 3 3 3 3 4 4 5 6 7 7 6 6 5 5 5 5 5 5 5 6 6 7 8 9 9 10 10 10 11 12 13 14 15 15 17 18 19 20 20 21 20 20 20 21 21 21 21 21 21
11 12 13 12 13 16 18 21 23 24 23 21 20 19 18 16 14 13 12 11 9 7 5 7 8 8 7 7 6 6 5 4 3 3 3 3 3 3 4 4 5 5 5 6 7 7 7 7 6 6 6 6 7 7 8 8 9 9 10 11 11 12 13 13 14 15 16 17 17 18 18 19 20 21 22 22 22 22 22 22 22 22 22 22 22
11 12 12 11 12 16 19 22 23 23 22 21 20 20 18 16 14 12 11 10 9 7 6 7 8 8 8 7 7 6 5 5 4 3 3 3 3 3 4 5 5 5 5 6 6 7 7 7 7 7 8 8 9 9 10 10 11 11 12 12 13 14 15 15 15 16 18 19 19 20 20 21 21 22 22 23 23 23 23 23 22 22 22 23 22
11 12 12 11 13 17 20 22 23 22 21 21 21 20 18 15 13 12 11 10 8 7 7 8 9 8 8 7 7 6 6 5 4 3 3 3 3 4 4 5 5 5 6 6 7 7 7 8 8 8 9 9 10 11 11 12 13 13 14 14 15 15 16 17 18 18 19 20 20 21 21 22 22 22 22 23 23 24 24 23 23 23 23 23 22
10 12 12 13 15 18 21 21 21 21 21 21 20 18 16 14 13 12 11 9 8 8 8 9 9 8 8 8 7 6 6 5 4 4 4 4 4 4 5 5 5 5 6 6 7 8 8 8 8 9 9 10 11 11 12 13 14 15 16 16 17 17 18 19 20 20 20 20 21 21 21 22 22 22 22 23 23 24 24 24 24 23 23 22 22
10 11 12 13 15 17 18 19 20 20 20 19 18 16 15 14 13 12 11 10 9 9 9 9 8 8 8 8 7 6 6 6 5 5 5 5 5 6 6 6 6 6 6 7 7 8 8 8 9 9 10 10 11 12 13 14 15 16 17 18 19 19 19 20 21 22 22 22 22 22 22 22 21 22 22 23 23 23 23 24 23 23 23 22 22
8 9 10 11 13 15 16 17 18 19 19 17 15 14 14 13 12 12 11 10 10 9 9 8 8 9 9 9 8 6 7 7 7 6 5 6 6 6 7 7 7 8 8 8 8 8 9 9 9 10 11 11 12 13 14 15 16 17 18 19 20 21 21 21 22 22 22 23 23 23 22 22 21 21 21 21 22 22 23 23 23 23 22 22 22
6 7 8 9 11 13 14 15 15 17 17 16 15 14 13 13 12 12 12 11 10 9 9 8 9 10 10 9 8 8 9 8 7 6 6 6 6 7 7 7 7 8 8 8 9 9 10 10 10 11 12 12 13 14 15 16 17 18 18 19 20 21 22 22 22 22 22 23 23 23 21 20 20 19 19 20 20 21 21 22 22 22 22 22 22
7 8 7 8 9 10 11 11 12 14 14 14 13 13 13 13 13 13 13 12 11 10 9 10 10 10 9 8 9 9 9 8 7 6 6 7 7 8 8 7 7 7 7 7 8 9 9 10 11 11 12 13 14 15 16 17 18 18 19 19 20 21 22 23 23 23 22 22 22 21 20 19 19 19 19 20 21 21 21 21 22 22 22 22 22
9 9 8 8 8 7 7 6 8 10 11 12 12 12 13 14 15 14 14 12 11 10 10 11 11 10 9 9 10 10 9 8 7 7 7 8 8 8 8 8 7 7 7 7 7 7 8 8 9 11 12 13 14 14 15 15 16 17 17 17 18 19 21 22 23 22 21 21 20 20 19 19 19 19 21 22 22 22 22 22 22 22 22 22 22
8 9 8 7 6 6 7 6 6 8 9 10 11 13 14 15 15 15 14 12 11 11 11 12 11 10 9 11 11 10 9 9 8 8 8 9 9 9 8 8 8 8 7 6 6 6 6 7 8 9 10 11 12 12 13 14 14 14 14 15 16 17 18 19 20 20 19 19 18 18 18 18 19 20 21 22 22 22 23 23 23 23 23 22 22
10 11 11 9 9 11 12 11 11 11 10 10 11 12 13 14 14 14 13 12 11 10 11 12 11 11 11 11 11 11 10 10 9 9 9 9 9 9 9 9 8 7 7 6 5 5 6 7 8 9 9 10 11 12 12 13 14 14 14 14 15 15 15 16 18 19 19 18 18 17 17 18 19 19 20 21 22 23 23 23 24 24 23 23 23
13 14 13 11 11 14 16 15 15 14 13 13 13 12 13 14 14 13 12 12 11 11 12 12 11 11 11 11 11 11 11 11 10 9 9 8 9 9 8 8 7 6 6 5 5 6 6 7 8 9 9 10 11 12 12 13 14 15 15 15 15 15 15 15 16 17 18 18 18 18 18 18 19 19 20 22 23 23 23 23 24 24 23 22 23
13 13 13 11 10 13 15 15 15 14 14 14 13 13 13 13 13 12 12 12 12 13 13 12 12 12 12 12 12 11 12 12 11 10 9 9 9 9 9 8 7 6 6 5 6 6 7 7 8 9 9 10 11 12 12 13 14 14 14 14 14 14 14 15 16 16 16 17 17 17 17 18 18 19 20 21 21 22 22 22 22 23 23 21 22
13 12 12 10 10 13 16 16 14 14 13 13 12 12 14 13 12 13 13 14 13 14 14 13 12 12 13 13 12 12 12 11 11 10 9 9 8 9 9 9 8 7 7 6 7 7 8 8 8 9 9 10 11 12 12 13 13 13 13 13 13 13 14 15 16 17 17 17 17 17 17 17 17 18 19 20 20 20 21 21 21 21 21 21 21
14 13 12 11 12 15 17 16 14 14 13 11 10 12 13 12 12 14 14 14 14 14 14 14 13 13 14 13 12 12 12 12 11 10 9 8 8 8 9 9 8 7 7 6 7 8 8 8 9 9 10 11 11 12 12 13 13 13 12 12 13 14 15 15 16 17 17 17 17 17 17 17 17 17 18 18 19 20 20 21 21 21 21 21 21
14 13 13 13 14 15 16 15 15 15 11 8 9 11 11 12 13 14 15 14 14 14 14 14 14 14 14 13 13 12 12 11 10 9 8 7 8 8 9 9 8 7 6 6 7 8 8 8 9 10 11 12 12 12 11 12 12 12 11 12 12 13 14 15 15 15 15 15 16 16 16 16 17 17 17 18 19 20 20 20 21 21 21 21 21
16 14 13 13 13 13 14 14 16 14 11 9 9 11 12 13 14 14 15 15 14 15 14 14 14 14 14 14 13 12 12 11 9 8 8 8 8 9 9 9 8 6 5 6 7 8 8 9 9 10 11 12 12 11 9 9 9 10 10 11 11 12 13 13 13 13 14 13 13 13 14 14 15 16 18 19 20 21 21 21 21 22 22 23 23
18 16 14 13 13 12 13 15 16 14 11 11 11 12 13 13 14 15 15 15 15 15 15 15 15 14 14 14 13 12 11 10 9 9 8 8 8 8 8 8 7 6 5 6 7 8 9 9 10 10 10 10 10 9 8 8 8 8 8 9 10 10 11 11 12 12 12 12 12 12 13 14 15 17 18 19 20 21 21 22 23 23 23 23 23
19 17 16 15 14 13 15 16 16 14 13 13 13 14 14 14 15 15 15 15 16 16 16 16 15 14 14 13 12 11 11 10 10 9 9 7 6 7 7 7 7 6 6 6 7 8 10 11 10 10 10 10 9 8 7 7 6 7 8 8 9 9 10 10 11 11 12 12 13 14 15 16 16 17 18 18 19 20 21 22 23 23 24 24 24
19 18 17 16 16 15 16 15 14 14 14 16 17 17 16 15 15 15 16 15 16 16 16 16 15 14 14 13 12 11 11 10 9 8 7 6 6 6 7 7 7 7 6 7 8 9 11 11 11 10 10 9 8 7 7 6 6 6 8 8 8 9 10 10 11 12 13 14 15 16 17 18 18 19 20 20 20 20 21 22 23 23 24 24 25
19 17 17 17 17 16 15 14 14 15 17 18 19 18 17 16 16 16 15 15 15 16 16 15 14 14 13 12 11 10 10 9 8 7 6 6 6 6 7 7 8 8 8 9 10 10 11 11 11 11 10 8 6 6 6 5 6 7 8 9 9 10 11 12 13 14 15 16 17 18 19 20 20 21 22 22 22 22 23 23 24 24 24 24 25
20 18 18 18 17 16 15 15 16 17 18 18 17 16 15 15 15 15 15 14 15 15 15 15 14 13 13 11 10 9 9 8 7 6 6 6 6 6 7 8 8 9 9 10 11 11 11 11 12 11 10 7 5 5 5 6 6 8 10 12 12 12 13 14 15 16 17 17 18 19 20 20 21 22 23 24 25 25 26 26 26 26 25 25 25
21 19 19 19 18 17 17 17 17 17 17 17 15 15 15 15 14 14 14 15 15 16 16 15 13 12 11 9 9 9 9 8 7 6 6 6 7 7 8 8 8 9 9 10 11 10 10 10 10 10 9 8 6 6 7 8 8 9 11 12 14 14 14 15 16 17 18 19 18 19 20 21 21 22 23 24 26 27 28 28 28 28 28 28 27
23 22 20 20 20 19 19 19 19 18 18 17 16 16 17 17 16 15 15 16 17 16 15 14 12 11 10 9 9 9 8 8 8 8 8 8 8 8 8 8 8 9 10 10 9 9 9 9 9 9 9 8 8 7 8 9 10 11 12 12 13 13 14 15 16 18 19 19 19 20 21 22 23 23 24 25 27 29 30 30 30 30 30 30 30
25 24 22 21 21 20 20 20 20 19 19 18 18 18 18 18 18 17 17 17 17 16 14 13 12 11 10 10 9 9 9 8 8 9 9 8 8 7 7 8 9 9 10 9 9 9 8 8 9 10 10 10 9 9 9 9 10 11 12 13 13 13 13 13 15 17 19 20 21 22 23 24 26 26 27 28 29 31 32 33 32 32 32 32 32
25 25 24 22 21 20 20 21 21 21 21 20 19 19 19 19 18 18 18 18 16 15 14 12 11 11 10 10 9 9 9 9 8 8 8 7 7 7 7 8 8 9 9 9 9 9 9 9 10 11 12 12 12 12 13 12 12 12 13 13 14 14 14 14 16 17 20 22 23 24 24 26 28 29 29 30 32 34 34 35 35 34 34 34 34
25 25 24 22 20 19 20 21 22 23 23 21 20 19 19 18 18 17 16 15 14 13 13 12 11 11 11 10 9 8 8 8 8 7 7 7 6 6 6 7 8 8 9 9 9 9 10 11 12 13 13 13 13 14 15 15 15 16 15 15 16 16 17 18 19 19 21 23 24 25 25 27 30 31 32 32 34 36 37 37 37 36 35 36 36
24 24 23 21 19 19 20 21 24 25 24 22 22 21 20 18 18 17 15 13 12 13 13 13 12 12 12 11 9 8 8 8 8 8 7 7 6 6 6 7 8 9 10 10 11 11 12 13 14 14 14 14 15 15 16 16 16 17 18 18 18 19 19 20 22 23 23 23 24 26 27 29 31 33 34 34 34 35 36 36 37 37 37 38 38
24 23 22 20 19 19 20 22 24 25 24 23 22 19 18 18 18 17 16 15 14 14 13 13 12 12 12 10 9 8 8 9 9 8 7 7 6 6 7 8 9 11 11 12 13 14 15 15 15 15 15 15 16 16 17 17 18 18 18 19 20 20 21 22 24 25 26 25 24 25 27 29 32 35 35 35 35 35 35 34 35 36 36 37 39
23 22 21 20 19 19 19 22 24 23 21 20 19 18 18 19 19 18 17 16 15 14 13 12 11 11 10 9 8 8 9 9 8 8 7 7 8 9 10 11 12 13 14 14 15 16 17 17 16 16 16 17 17 17 18 18 19 19 20 20 21 22 23 24 25 26 27 27 26 26 26 27 27 31 34 35 35 36 36 35 35 35 35 35 37
23 22 21 19 18 18 19 20 21 18 17 18 19 19 20 20 19 18 16 14 14 13 12 11 10 9 8 7 7 8 9 8 8 7 8 9 10 11 12 13 14 15 16 17 17 18 18 17 17 17 18 18 18 19 19 20 20 20 21 22 23 24 25 26 27 27 28 28 28 28 27 27 25 26 30 32 34 34 35 35 35 35 35 35 35
22 22 21 20 19 18 18 19 19 17 16 17 19 20 18 17 17 16 15 13 12 12 11 10 8 8 8 7 8 9 8 8 7 8 9 10 12 13 14 15 16 17 17 18 18 18 18 18 18 18 19 19 20 20 21 21 21 22 22 23 24 26 27 27 27 28 28 29 30 30 29 29 27 26 27 29 32 33 34 35 35 35 35 35 35
Wind_Direction
219 212 202 193 183 183 190 190 184 175 172 164 163 163 147 119 92 71 56 51 46 45 43 43 44 46 47 47 45 45 46 45 45 44 43 44 44 43 43 46 53 66 83 93 86 72 75 92 109 117 121 118 114 112 116 122 123 122 119 113 107 105 105 102 99 97 95 93 90 87 82 76 70 65 60 55 51 46 42 39 35 32 28 25 23
229 210 203 201 192 189 193 192 185 177 172 168 168 172 164 140 98 72 53 46 40 40 40 40 41 42 45 47 47 46 47 48 47 46 45 44 44 44 46 50 55 63 79 88 83 73 75 87 100 110 115 113 109 113 119 121 121 120 116 110 107 106 104 101 98 95 92 90 88 85 81 75 69 63 58 54 50 46 42 37 33 29 25 23 20
218 211 207 206 199 194 195 193 188 180 175 172 173 180 180 160 117 79 50 40 35 33 34 36 36 38 41 45 48 47 47 48 49 49 47 45 44 44 46 50 55 61 73 82 80 75 76 81 90 99 105 106 108 114 118 118 118 116 112 108 106 104 102 99 97 95 93 89 85 81 79 76 71 64 57 52 49 45 40 36 32 28 24 20 18
213 211 210 210 205 198 197 195 192 185 180 179 179 188 192 181 153 89 44 34 28 27 28 28 29 32 36 41 46 49 48 49 50 50 50 49 47 45 46 49 53 59 68 77 79 76 76 81 88 96 100 102 105 110 111 113 113 111 106 105 105 103 100 99 98 96 93 89 85 81 77 75 71 65 58 51 46 42 39 35 31 28 24 20 16
216 208 207 210 209 204 200 198 195 191 186 185 187 195 202 202 198 103 29 26 22 21 21 19 21 24 30 37 43 48 50 49 51 52 52 53 51 49 47 48 51 57 65 73 77 78 77 81 89 95 97 99 102 105 107 108 105 102 102 102 101 101 100 99 98 95 91 86 81 77 73 70 67 63 59 54 47 42 38 33 30 27 24 19 15
227 210 204 209 211 209 204 201 200 196 192 192 195 202 211 217 226 261 351 7 13 16 16 12 11 15 23 31 38 46 49 50 53 53 54 55 55 53 51 50 51 55 62 69 75 77 78 82 89 93 95 99 103 104 105 103 100 101 101 102 101 100 99 97 93 90 86 81 76 72 67 62 60 58 54 50 45 39 34 30 26 22 20 17 13
228 212 204 206 211 212 208 205 205 200 196 198 201 207 214 224 238 261 305 338 356 6 10 7 3 6 15 23 31 40 48 51 54 55 56 57 59 58 56 54 53 54 58 64 72 77 79 82 88 92 97 101 103 102 101 100 101 104 104 103 102 98 95 92 89 85 81 75 71 67 63 60 56 53 47 42 38 34 30 26 22 18 16 13 10
227 214 205 204 208 212 212 209 209 204 200 202 206 210 216 227 240 257 281 312 334 350 2 2 356 357 6 13 20 31 43 50 54 56 56 58 61 61 60 58 56 56 56 59 66 75 79 83 90 95 99 100 100 100 100 103 106 108 108 104 100 95 90 86 83 80 75 71 67 63 60 57 54 50 44 37 32 28 25 23 19 16 14 11 9
228 218 209 206 206 209 212 213 212 207 204 205 209 213 218 228 239 254 272 295 313 333 351 353 351 350 356 0 4 17 33 45 52 56 57 58 61 63 63 62 61 58 56 56 62 72 80 87 93 98 98 99 99 100 103 106 109 109 105 101 96 91 86 82 79 75 70 66 61 55 52 49 46 43 39 33 27 23 19 18 16 13 12 10 9
229 221 214 210 207 208 211 213 214 211 207 208 211 215 220 229 238 250 266 285 301 318 337 344 344 343 345 345 347 359 17 37 49 54 57 58 61 64 66 66 65 63 59 58 62 72 82 91 96 98 100 100 101 101 103 104 104 103 100 97 94 88 84 81 75 67 58 53 45 36 36 36 33 30 27 24 20 16 13 11 11 10 9 8 7
233 227 218 214 211 209 209 212 214 213 211 211 214 216 222 230 238 249 263 276 292 305 321 334 336 335 337 334 334 344 354 19 44 54 59 59 62 66 69 71 71 68 65 63 67 76 86 94 97 98 100 102 103 102 101 100 99 100 102 100 95 90 91 87 62 42 33 27 19 13 17 21 20 18 15 14 12 9 7 5 5 5 5 5 5
240 234 225 218 213 211 210 211 212 214 214 214 216 218 223 230 239 248 260 270 282 292 306 324 331 331 330 326 324 329 330 342 39 56 61 62 65 68 74 77 78 76 73 72 74 80 88 96 99 99 101 102 103 104 103 102 104 107 108 103 102 106 112 95 39 13 6 3 356 355 0 6 8 8 5 3 2 1 0 359 358 359 360 0 1
249 239 233 227 217 212 210 210 211 214 216 217 219 220 224 230 239 247 255 265 273 282 294 317 329 328 324 315 311 310 307 301 340 67 68 68 67 71 79 83 85 84 82 82 82 86 92 98 103 105 106 107 107 107 108 108 112 115 110 105 110 119 131 103 42 348 341 341 339 343 347 351 354 356 355 352 353 352 352 352 351 353 354 355 356
263 249 241 237 224 215 211 211 211 215 218 219 221 222 224 229 237 244 253 261 267 276 286 311 328 324 313 302 295 292 285 275 250 131 84 77 73 73 81 88 93 93 93 92 92 93 97 103 107 112 115 117 117 117 117 117 118 115 106 102 107 106 108 34 356 308 322 332 334 338 340 341 342 342 342 342 343 343 343 343 344 345 348 349 350
275 260 250 246 234 219 213 212 212 216 219 221 223 222 224 228 234 242 250 258 264 272 282 304 322 315 299 286 281 281 275 263 241 183 117 94 86 83 86 93 101 103 103 102 102 102 105 110 115 120 125 128 129 130 129 127 127 115 95 92 94 96 94 314 323 325 323 327 331 331 333 333 332 332 332 333 334 335 336 335 336 338 341 342 344
280 264 254 252 244 223 216 215 214 217 220 222 223 222 224 227 232 239 248 257 263 269 278 295 310 303 287 277 274 272 267 251 230 188 143 122 106 103 101 103 109 111 113 112 112 113 115 118 124 129 134 140 140 143 146 153 168 235 296 346 296 222 290 302 312 317 318 321 323 323 324 325 325 327 327 327 329 329 329 328 329 331 334 336 339
281 265 255 254 249 227 216 217 218 220 221 223 223 223 225 228 233 239 248 256 262 267 272 284 296 292 278 270 267 262 256 242 220 187 165 151 135 128 124 119 121 124 124 124 124 125 127 129 136 143 149 158 162 175 194 220 244 266 278 286 284 288 295 302 303 306 311 314 315 316 317 318 320 321 321 322 323 322 322 323 325 327 330 333 334
280 267 258 258 251 227 216 217 220 222 224 225 225 225 227 230 234 239 248 256 261 263 265 280 287 282 271 262 256 252 247 237 222 195 179 171 158 145 140 138 137 140 139 136 137 138 141 144 151 162 174 184 196 213 228 243 255 266 276 284 288 293 298 298 299 301 305 306 307 310 312 314 315 316 317 318 318 317 318 320 322 325 327 329 331
276 266 259 257 248 227 216 217 221 223 225 226 228 229 231 233 235 240 248 254 258 257 263 279 280 272 261 253 249 246 242 234 225 205 192 186 177 162 155 156 156 157 156 151 151 154 157 161 170 183 196 206 216 227 237 245 253 262 271 281 286 291 297 298 299 301 302 303 304 307 309 310 311 312 313 314 314 314 315 317 319 321 322 324 327
270 261 252 249 242 228 220 219 221 222 223 225 228 231 233 234 236 241 247 252 255 253 264 276 270 262 252 246 244 242 238 233 223 212 202 199 192 179 175 173 171 171 172 169 167 170 174 178 185 197 209 220 228 235 242 248 252 259 266 274 281 287 292 296 299 301 302 303 304 305 306 307 308 310 311 313 313 313 313 314 316 318 319 321 323
268 257 245 240 234 227 221 219 220 221 222 224 227 230 231 232 236 240 245 250 251 253 266 267 259 251 244 240 241 241 239 234 225 220 208 202 200 196 192 185 183 181 182 184 184 186 190 194 199 209 218 226 234 240 246 251 256 260 265 271 278 284 289 292 295 297 299 301 303 304 305 306 308 309 311 312 312 311 311 312 314 316 317 318 318
270 257 243 238 232 224 219 218 218 219 221 223 226 227 228 231 236 239 244 248 249 258 264 257 251 245 240 239 240 242 241 238 229 224 217 207 201 203 205 198 195 192 192 195 197 202 206 210 215 221 227 234 241 247 252 258 263 268 272 276 280 284 289 291 294 296 298 300 301 303 305 307 308 309 311 311 311 309 309 311 312 313 314 315 315
269 252 243 238 231 223 218 217 217 217 219 222 224 225 227 231 233 237 241 244 249 257 257 250 247 243 240 241 241 242 240 232 221 218 217 214 204 202 207 206 205 203 204 206 208 213 217 221 227 232 238 244 251 256 262 268 275 279 281 283 284 286 290 292 295 297 298 300 301 302 304 305 306 308 309 309 309 308 308 309 309 310 311 312 313
261 250 244 240 231 222 215 213 213 215 217 219 222 224 227 230 232 235 237 241 247 249 248 245 244 240 240 242 243 242 233 217 208 212 215 220 217 209 207 207 207 207 211 217 220 224 227 231 236 242 249 255 260 265 269 274 278 281 283 284 286 287 289 291 294 297 299 301 302 303 303 304 306 307 307 306 305 304 304 304 305 306 308 309 309
253 254 247 237 225 217 209 208 210 211 215 216 219 223 226 228 230 232 233 238 241 239 239 239 238 237 239 242 241 234 225 215 209 213 220 227 230 225 220 217 214 210 211 219 225 228 231 234 238 243 249 256 261 264 267 269 272 274 278 281 284 286 288 289 291 294 298 301 303 304 305 306 307 306 304 302 301 301 300 300 301 302 303 305 305
251 248 237 223 214 210 203 201 206 211 215 216 218 222 223 225 227 228 230 232 230 230 232 231 231 234 238 240 233 224 222 220 216 220 228 235 236 236 233 231 228 222 219 221 226 230 234 237 240 245 251 257 261 263 264 266 268 270 274 278 281 284 287 289 290 292 296 299 301 304 304 303 303 302 304 305 304 302 301 299 298 298 300 302 303
258 244 226 212 203 199 194 193 204 213 216 218 220 222 225 227 226 225 224 223 221 222 224 225 228 233 238 233 222 220 222 223 223 226 235 240 241 242 242 241 241 239 235 235 238 241 244 247 251 255 259 262 265 266 268 269 270 271 273 276 279 283 286 288 290 293 295 295 296 298 298 297 299 302 307 309 308 306 305 302 300 300 300 301 300
257 244 230 213 198 188 187 187 206 220 219 220 223 225 228 228 226 223 220 217 215 216 219 224 228 230 230 223 218 221 224 225 225 229 237 240 242 247 248 247 248 249 249 249 252 253 256 260 263 266 267 267 269 271 274 275 275 275 275 277 279 281 283 285 288 291 292 291 291 292 293 296 300 303 306 306 305 306 306 304 303 303 302 300 299
240 236 235 220 199 193 197 193 211 233 228 223 224 224 225 223 221 219 216 214 214 215 220 225 226 223 221 219 218 222 227 229 227 227 234 240 243 247 248 248 250 251 252 252 252 254 259 264 269 272 274 276 279 283 285 286 286 285 284 283 283 283 285 287 289 291 291 290 289 291 294 297 301 303 303 303 303 305 306 306 306 305 305 304 300
230 233 232 222 207 203 209 210 217 233 237 237 236 227 219 214 213 212 211 211 212 215 221 226 225 220 218 221 220 221 226 230 227 225 232 240 244 243 242 243 244 242 244 251 261 271 276 277 278 279 280 281 285 288 289 290 291 292 292 289 288 288 289 290 291 292 293 293 294 296 299 302 304 304 303 304 306 306 306 307 307 308 309 308 303
221 226 225 222 216 212 216 212 209 218 230 240 245 235 217 209 206 204 205 209 211 215 222 227 226 221 222 225 226 224 226 228 227 227 234 242 247 246 242 239 239 239 242 256 272 277 276 275 276 278 278 281 285 288 290 290 291 293 294 293 293 294 294 294 293 293 294 296 299 303 306 307 306 305 305 306 307 307 306 306 305 306 305 304 303
204 212 217 216 205 199 201 196 196 207 221 234 246 238 219 209 205 200 202 207 211 216 223 228 225 222 225 227 227 228 229 226 225 227 232 238 243 245 240 236 238 242 248 258 267 268 269 272 278 282 284 289 293 296 297 297 298 298 298 298 298 299 300 301 301 300 299 300 303 306 307 307 307 307 308 308 309 309 309 306 305 304 303 303 304
189 196 204 204 185 175 182 189 196 206 219 233 243 235 221 212 206 201 204 208 212 217 223 228 226 223 225 229 228 228 227 225 223 223 227 230 234 234 230 228 230 240 252 263 276 287 293 296 299 299 300 303 304 307 309 309 308 305 305 308 309 311 311 310 309 309 309 309 310 309 309 309 310 310 310 310 311 311 311 310 308 305 304 305 304
188 192 193 194 189 182 185 193 202 208 218 235 245 237 225 217 210 206 209 211 213 219 223 226 226 226 227 230 229 226 224 223 222 223 224 225 224 222 220 221 228 242 257 273 293 305 310 310 308 304 305 308 310 315 317 317 316 315 317 320 321 321 318 315 314 314 313 312 311 311 311 311 311 310 309 310 311 311 310 309 308 307 306 305 304
186 190 191 192 198 196 192 197 204 206 210 226 246 248 238 228 220 216 216 215 215 220 223 225 226 229 230 230 230 228 226 224 223 224 224 221 221 220 219 225 233 244 263 288 304 314 318 313 307 304 307 311 315 319 319 317 316 318 323 324 323 320 317 318 319 318 317 314 312 312 312 311 311 310 309 310 311 311 309 308 308 307 307 306 306
179 182 191 197 203 202 195 193 193 192 199 217 237 250 248 239 231 227 223 219 219 221 223 225 226 229 232 232 231 228 228 226 224 225 224 223 224 224 228 235 241 249 274 301 311 317 317 310 303 301 305 310 314 316 312 306 307 314 319 319 318 317 320 325 327 327 324 320 319 317 315 313 314 313 312 312 312 310 308 308 308 308 308 307 308
178 179 189 200 204 201 194 188 186 188 206 225 235 247 249 242 236 233 230 225 222 222 223 224 225 229 234 233 228 225 227 227 224 224 223 223 227 232 240 247 257 268 285 307 312 308 304 294 289 291 297 305 308 304 293 287 292 301 306 309 315 321 327 333 335 334 331 329 327 323 321 321 319 318 316 315 313 311 309 309 309 308 308 307 308
184 185 188 195 201 197 190 190 192 197 209 221 231 244 246 240 236 233 231 228 224 222 222 222 224 228 232 228 221 222 226 227 224 223 222 224 232 242 250 258 267 273 280 297 302 295 288 282 283 290 299 305 300 285 271 269 279 290 299 309 320 326 331 337 335 333 332 331 330 327 326 325 323 320 318 316 315 314 313 311 310 309 309 309 310
191 191 191 195 196 190 188 192 196 199 206 215 224 234 238 237 235 232 229 225 222 222 221 221 224 227 228 224 221 221 225 228 225 223 224 229 242 250 255 261 266 268 273 287 290 284 281 282 291 301 309 311 297 276 266 268 280 292 303 316 325 328 332 336 333 330 330 330 329 328 328 327 324 321 320 318 317 316 313 310 308 308 308 309 309
194 197 198 199 197 194 195 200 202 204 209 217 224 230 232 232 229 226 224 221 220 221 221 222 224 226 226 224 223 222 224 227 223 221 226 233 244 253 255 258 263 267 274 285 287 285 286 293 304 312 314 311 292 276 278 286 296 304 310 318 325 327 329 332 330 328 327 328 327 327 326 325 322 320 319 319 317 314 310 307 306 305 304 304 305
196 199 203 205 205 205 206 209 211 213 215 220 227 231 229 227 225 222 219 217 218 220 222 221 223 225 225 225 223 223 223 221 215 217 227 236 246 256 258 259 265 273 283 290 292 295 301 308 312 312 310 308 301 294 302 309 312 314 317 320 324 326 327 327 326 324 324 326 326 325 323 321 320 320 319 318 315 312 309 306 304 303 301 300 300
198 202 206 209 210 211 213 214 216 218 220 221 223 224 222 220 218 216 215 216 217 221 221 220 221 221 222 223 220 218 216 213 214 222 229 238 250 259 261 263 270 280 288 290 294 302 309 312 311 307 306 311 319 321 320 321 320 319 319 320 321 324 327 325 322 321 322 324 325 323 320 318 318 318 317 314 311 308 306 305 303 302 301 300 299
200 205 208 211 214 216 216 215 216 218 220 220 218 217 218 216 213 209 211 216 218 221 221 218 217 216 217 218 213 210 211 215 223 229 233 239 249 258 263 269 279 286 290 294 302 310 311 309 306 305 309 313 317 320 319 319 318 317 317 316 316 320 323 323 320 318 319 322 322 320 317 315 314 313 311 308 305 302 301 300 299 299 299 298 297
202 207 211 214 216 218 218 216 215 216 218 218 218 217 216 216 215 209 208 213 217 218 218 217 215 214 216 214 212 213 214 220 230 235 239 244 252 261 271 282 291 295 303 312 316 316 311 306 303 303 306 308 311 314 315 315 313 312 312 313 315 319 321 320 317 314 315 319 319 317 314 311 309 307 305 303 300 298 297 296 295 295 295 295 295
207 210 213 216 218 219 219 217 216 216 216 217 218 219 216 214 213 212 211 213 215 213 210 212 214 213 210 208 210 213 217 228 242 245 246 249 255 266 278 291 302 311 318 321 319 316 311 304 300 299 301 304 307 310 312 312 311 310 310 311 313 317 321 319 316 315 314 315 315 313 310 307 305 303 301 299 297 295 294 294 293 292 291 291 291
210 213 215 215 215 215 215 217 218 217 216 215 217 216 210 207 209 213 218 219 217 213 209 209 209 206 206 209 210 214 227 243 251 250 247 249 256 270 289 305 315 320 321 320 318 313 306 301 299 299 299 301 304 305 306 308 308 310 310 311 313 316 318 318 316 316 314 314 314 313 309 305 303 301 299 297 295 294 293 292 292 291 290 288 287
211 214 213 210 208 210 214 217 218 218 216 215 216 209 200 200 204 206 212 217 215 216 217 213 209 208 210 212 213 224 244 253 252 248 248 253 264 280 298 312 316 317 318 316 314 308 302 301 299 299 298 299 301 301 302 303 303 305 307 310 312 313 314 314 313 314 312 314 316 315 312 308 305 303 301 299 297 295 294 293 292 291 290 288 286
213 213 210 206 207 212 217 222 223 218 214 215 216 207 196 197 201 200 202 208 210 213 217 216 216 216 212 211 219 239 253 255 254 254 260 267 279 292 301 308 310 312 314 312 309 305 301 300 299 297 296 297 299 300 301 300 300 301 303 305 307 308 309 309 309 310 311 313 315 313 312 310 308 306 304 303 302 300 298 296 294 292 291 289 287
214 210 208 208 210 215 220 228 231 223 214 218 218 207 200 197 197 200 203 207 210 210 211 213 215 215 213 220 238 253 256 256 260 265 274 283 292 302 305 307 309 309 309 306 304 302 300 299 297 296 297 297 299 300 300 300 300 300 300 301 301 302 303 305 306 307 309 311 311 309 308 306 304 302 302 302 301 300 300 299 297 295 293 291 289
213 208 210 214 215 218 221 230 239 233 220 221 221 212 205 197 193 200 205 208 214 213 208 207 209 214 227 245 258 258 257 258 265 275 287 296 301 306 307 307 307 305 303 301 299 298 298 298 298 299 300 300 300 300 300 299 299 298 298 298 298 300 302 304 306 307 307 308 309 310 309 307 304 299 297 297 297 296 296 296 296 295 294 293 292
212 210 214 218 219 222 223 227 236 234 221 218 222 221 212 198 193 200 206 207 211 208 203 206 213 228 245 259 258 254 258 264 278 291 297 301 302 304 305 304 303 301 299 298 297 297 298 300 302 302 301 300 299 299 298 298 298 297 296 297 298 301 303 304 305 306 307 308 310 310 310 310 309 305 300 298 297 296 296 295 295 294 293 292 291
Height
3166 3167 3167 3168 3170 3171 3173 3174 3175 3176 3177 3177 3178 3179 3180 3180 3180 3180 3180 3180 3180 3179 3178 3178 3177 3176 3176 3175 3174 3173 3173 3172 3171 3171 3170 3170 3169 3168 3168 3167 3167 3166 3166 3166 3166 3166 3166 3165 3165 3164 3164 3164 3164 3164 3164 3165 3165 3165 3166 3166 3166 3166 3166 3166 3166 3166 3166 3166 3166 3166 3166 3166 3166 3165 3165 3165 3165 3164 3164 3163 3163 3163 3162 3162 3161
3167 3167 3167 3168 3170 3171 3173 3174 3175 3176 3177 3177 3178 3179 3180 3181 3181 3181 3181 3181 3180 3180 3179 3179 3178 3177 3177 3176 3175 3175 3174 3173 3173 3172 3171 3171 3170 3169 3168 3168 3167 3167 3167 3167 3167 3166 3166 3166 3166 3165 3165 3165 3165 3165 3166 3166 3166 3167 3167 3167 3167 3167 3167 3168 3168 3168 3168 3167 3167 3167 3167 3167 3167 3167 3166 3166 3166 3165 3165 3164 3164 3163 3163 3162 3161
3168 3167 3168 3169 3170 3172 3173 3174 3175 3176 3177 3178 3179 3180 3181 3181 3182 3182 3182 3182 3181 3181 3180 3180 3179 3179 3178 3177 3177 3176 3175 3174 3174 3173 3172 3172 3171 3170 3169 3169 3168 3168 3168 3168 3167 3167 3167 3167 3166 3166 3166 3166 3166 3167 3167 3167 3168 3168 3168 3168 3168 3169 3169 3169 3169 3169 3169 3169 3169 3169 3168 3168 3168 3167 3167 3167 3166 3166 3166 3165 3164 3164 3163 3162 3162
3168 3168 3168 3170 3170 3172 3173 3174 3175 3176 3177 3178 3179 3180 3181 3182 3182 3182 3182 3182 3182 3182 3181 3181 3180 3180 3179 3179 3178 3177 3176 3176 3175 3174 3174 3173 3172 3171 3170 3170 3169 3169 3168 3168 3168 3168 3167 3167 3167 3167 3167 3167 3168 3168 3169 3169 3169 3169 3169 3169 3170 3170 3170 3170 3170 3170 3170 3170 3170 3170 3170 3169 3169 3168 3168 3168 3167 3167 3166 3166 3165 3164 3163 3163 3162
3168 3168 3169 3170 3171 3172 3173 3174 3175 3176 3177 3178 3179 3181 3182 3182 3183 3183 3183 3183 3183 3182 3182 3182 3181 3181 3180 3180 3179 3178 3178 3177 3176 3175 3175 3174 3173 3172 3171 3171 3170 3170 3169 3169 3169 3168 3168 3168 3168 3168 3168 3169 3169 3169 3170 3170 3170 3170 3171 3171 3171 3171 3171 3171 3171 3171 3171 3171 3171 3171 3171 3170 3170 3169 3169 3169 3168 3168 3167 3166 3166 3165 3164 3163 3162
3169 3169 3170 3170 3171 3172 3173 3174 3175 3176 3177 3178 3179 3181 3182 3182 3183 3183 3183 3183 3183 3183 3183 3183 3182 3182 3181 3180 3180 3179 3179 3178 3177 3176 3176 3175 3174 3173 3172 3172 3171 3171 3170 3170 3170 3169 3169 3169 3169 3169 3170 3170 3170 3171 3171 3171 3171 3172 3172 3172 3172 3172 3172 3172 3173 3173 3173 3172 3172 3172 3171 3171 3170 3170 3170 3169 3169 3168 3167 3167 3166 3165 3164 3164 3162
3169 3169 3170 3171 3171 3172 3173 3174 3175 3176 3177 3178 3179 3181 3182 3182 3183 3183 3184 3184 3184 3184 3184 3183 3183 3183 3182 3181 3180 3180 3179 3179 3178 3177 3176 3176 3175 3174 3173 3173 3172 3171 3171 3171 3170 3170 3170 3170 3170 3170 3171 3171 3171 3172 3172 3172 3173 3173 3173 3173 3173 3173 3173 3174 3174 3174 3173 3173 3173 3173 3172 3172 3171 3171 3170 3170 3169 3168 3168 3167 3166 3165 3165 3164 3163
3169 3169 3169 3170 3171 3172 3173 3174 3175 3175 3177 3178 3179 3180 3181 3182 3183 3184 3184 3184 3184 3184 3184 3184 3184 3183 3182 3181 3181 3180 3180 3179 3178 3178 3177 3176 3176 3175 3174 3174 3173 3172 3172 3172 3171 3171 3171 3171 3171 3171 3172 3172 3172 3173 3173 3173 3174 3174 3174 3174 3174 3174 3175 3175 3175 3175 3174 3174 3174 3174 3173 3172 3172 3171 3171 3170 3169 3169 3168 3167 3167 3166 3165 3164 3163
3168 3168 3168 3169 3170 3171 3172 3173 3174 3175 3176 3178 3179 3180 3181 3182 3183 3183 3184 3184 3184 3184 3184 3184 3184 3183 3182 3182 3181 3181 3180 3180 3179 3178 3178 3177 3176 3176 3175 3174 3174 3173 3173 3173 3172 3172 3172 3172 3172 3172 3173 3173 3173 3174 3174 3175 3175 3175 3175 3175 3175 3175 3176 3176 3176 3176 3176 3175 3175 3174 3174 3173 3172 3172 3171 3170 3170 3169 3168 3168 3167 3166 3165 3164 3163
3167 3167 3167 3167 3168 3169 3171 3172 3173 3174 3176 3177 3178 3180 3180 3182 3182 3183 3184 3184 3184 3184 3184 3184 3183 3183 3183 3182 3181 3181 3180 3180 3179 3179 3178 3178 3177 3176 3176 3175 3175 3174 3174 3174 3173 3173 3173 3173 3173 3174 3174 3174 3174 3175 3175 3175 3176 3176 3176 3176 3176 3176 3177 3177 3177 3177 3176 3176 3176 3175 3174 3173 3172 3172 3171 3171 3170 3169 3169 3168 3167 3166 3165 3164 3163
3166 3166 3166 3166 3167 3168 3169 3171 3172 3174 3175 3176 3178 3179 3180 3181 3182 3183 3183 3184 3184 3183 3183 3183 3183 3183 3183 3182 3182 3181 3181 3180 3180 3179 3179 3178 3177 3177 3176 3176 3175 3175 3175 3174 3174 3174 3174 3174 3175 3175 3175 3175 3175 3176 3176 3176 3177 3177 3177 3177 3177 3177 3177 3177 3177 3177 3177 3177 3176 3176 3175 3174 3173 3172 3172 3171 3170 3169 3169 3168 3167 3166 3166 3165 3164
3165 3165 3165 3165 3166 3167 3168 3169 3171 3173 3174 3175 3177 3178 3179 3180 3181 3182 3183 3183 3183 3183 3183 3183 3183 3183 3183 3182 3182 3181 3181 3180 3180 3179 3179 3178 3178 3177 3177 3176 3176 3176 3175 3175 3175 3175 3175 3175 3176 3176 3176 3176 3176 3176 3177 3177 3177 3178 3178 3178 3178 3178 3178 3178 3178 3178 3177 3177 3177 3176 3175 3174 3173 3172 3172 3171 3170 3170 3169 3168 3167 3166 3166 3165 3164
3164 3164 3164 3164 3165 3165 3167 3168 3170 3172 3173 3175 3176 3177 3178 3179 3180 3181 3182 3182 3182 3182 3182 3183 3183 3183 3183 3182 3182 3181 3181 3180 3180 3179 3179 3178 3178 3178 3177 3177 3177 3176 3176 3176 3176 3176 3176 3176 3176 3176 3177 3177 3177 3177 3177 3178 3178 3178 3178 3178 3178 3178 3178 3178 3178 3178 3177 3177 3177 3176 3175 3174 3173 3172 3172 3171 3170 3170 3169 3168 3167 3166 3165 3164 3163
3162 3162 3163 3163 3164 3165 3166 3168 3169 3171 3173 3174 3175 3176 3177 3178 3179 3180 3181 3181 3181 3181 3182 3182 3183 3183 3182 3182 3181 3181 3180 3180 3179 3179 3179 3179 3178 3178 3178 3177 3177 3177 3177 3176 3176 3176 3176 3177 3177 3177 3177 3177 3177 3178 3178 3178 3178 3178 3178 3179 3179 3179 3179 3178 3178 3178 3177 3177 3176 3176 3175 3174 3173 3172 3171 3171 3170 3170 3169 3168 3167 3166 3165 3164 3163
3160 3161 3162 3163 3163 3164 3166 3167 3169 3171 3172 3173 3175 3176 3177 3177 3178 3179 3180 3180 3181 3181 3182 3182 3182 3182 3182 3182 3181 3181 3180 3180 3179 3179 3179 3179 3179 3178 3178 3178 3177 3177 3177 3177 3177 3177 3177 3177 3177 3177 3177 3178 3178 3178 3178 3178 3178 3178 3178 3178 3179 3179 3179 3178 3178 3177 3177 3176 3176 3175 3175 3174 3173 3172 3171 3171 3170 3169 3168 3168 3167 3166 3165 3164 3163
3160 3160 3161 3162 3163 3164 3166 3167 3169 3170 3171 3173 3174 3175 3176 3177 3178 3179 3179 3180 3180 3181 3181 3182 3182 3182 3181 3181 3181 3180 3180 3179 3179 3179 3179 3179 3179 3178 3178 3178 3177 3177 3177 3177 3177 3177 3177 3177 3177 3178 3178 3178 3178 3178 3178 3178 3178 3178 3178 3178 3178 3178 3178 3178 3177 3177 3176 3176 3175 3175 3174 3173 3172 3172 3171 3170 3169 3169 3168 3167 3166 3165 3164 3163 3162
3159 3160 3161 3162 3163 3164 3165 3167 3168 3169 3170 3172 3173 3174 3175 3176 3177 3178 3178 3179 3180 3180 3181 3181 3181 3181 3181 3181 3180 3180 3179 3179 3179 3179 3179 3179 3179 3178 3178 3178 3178 3177 3177 3177 3177 3177 3177 3177 3178 3178 3178 3178 3178 3178 3178 3178 3178 3178 3177 3177 3177 3177 3178 3177 3177 3176 3176 3175 3174 3174 3173 3173 3172 3171 3170 3170 3169 3168 3167 3166 3166 3164 3163 3162 3161
3159 3159 3160 3161 3162 3163 3164 3166 3167 3168 3169 3171 3172 3174 3174 3175 3176 3177 3178 3178 3179 3179 3180 3181 3181 3181 3180 3180 3180 3180 3179 3179 3179 3179 3179 3178 3178 3178 3178 3178 3178 3178 3177 3177 3177 3177 3177 3177 3178 3178 3178 3178 3178 3178 3178 3178 3178 3178 3177 3177 3177 3176 3177 3176 3176 3175 3175 3174 3174 3173 3172 3172 3171 3170 3170 3169 3168 3167 3166 3165 3164 3163 3162 3162 3161
3158 3158 3159 3160 3161 3162 3163 3165 3166 3167 3169 3171 3172 3173 3174 3174 3175 3176 3177 3178 3178 3179 3180 3180 3180 3180 3180 3180 3180 3179 3179 3178 3178 3178 3178 3178 3178 3178 3178 3178 3178 3178 3177 3177 3177 3177 3177 3177 3178 3178 3178 3178 3178 3178 3178 3178 3178 3177 3177 3176 3176 3176 3176 3176 3175 3175 3174 3174 3173 3173 3172 3171 3170 3170 3169 3168 3167 3166 3165 3164 3163 3163 3162 3161 3160
3156 3157 3158 3159 3161 3161 3163 3164 3165 3166 3168 3170 3171 3172 3173 3173 3174 3175 3176 3177 3177 3178 3179 3179 3179 3179 3179 3179 3179 3179 3178 3178 3178 3178 3178 3178 3178 3178 3178 3178 3178 3178 3178 3177 3177 3177 3177 3177 3177 3177 3177 3177 3177 3178 3177 3177 3177 3177 3177 3176 3176 3175 3175 3175 3175 3174 3173 3173 3172 3172 3171 3170 3169 3169 3168 3167 3166 3165 3164 3163 3162 3161 3160 3160 3159
3155 3156 3157 3159 3160 3161 3162 3163 3164 3166 3167 3169 3170 3171 3171 3172 3173 3174 3175 3176 3176 3177 3178 3179 3179 3179 3179 3178 3178 3178 3178 3178 3178 3178 3178 3178 3178 3178 3178 3178 3178 3178 3178 3177 3177 3177 3177 3177 3177 3177 3177 3177 3177 3177 3177 3177 3176 3176 3176 3176 3175 3175 3174 3174 3174 3173 3173 3172 3171 3171 3170 3169 3168 3168 3167 3166 3165 3164 3163 3162 3161 3160 3159 3158 3157
3156 3157 3157 3158 3159 3159 3160 3161 3163 3165 3167 3168 3169 3170 3171 3171 3172 3173 3174 3175 3176 3177 3177 3178 3178 3178 3178 3178 3178 3178 3178 3177 3177 3177 3177 3177 3178 3178 3178 3178 3178 3178 3178 3177 3177 3177 3177 3177 3177 3177 3176 3176 3176 3176 3176 3176 3176 3175 3175 3175 3174 3174 3173 3172 3172 3172 3171 3171 3170 3170 3169 3168 3167 3166 3165 3164 3163 3162 3161 3160 3159 3159 3158 3157 3156
3156 3157 3157 3157 3157 3157 3158 3160 3162 3164 3166 3167 3168 3169 3170 3171 3172 3172 3173 3174 3175 3176 3176 3177 3177 3178 3177 3177 3177 3177 3177 3177 3177 3177 3177 3177 3177 3177 3177 3177 3177 3178 3177 3177 3177 3177 3177 3176 3176 3176 3176 3176 3176 3176 3176 3175 3175 3175 3174 3174 3173 3173 3173 3172 3171 3171 3170 3170 3169 3168 3168 3167 3166 3165 3164 3163 3162 3160 3159 3158 3157 3157 3156 3155 3154
3156 3156 3156 3155 3156 3156 3158 3159 3161 3163 3165 3167 3168 3169 3170 3170 3171 3171 3172 3172 3174 3174 3175 3176 3177 3177 3177 3177 3177 3177 3177 3177 3176 3176 3176 3176 3176 3177 3177 3177 3177 3177 3177 3177 3177 3176 3176 3176 3176 3176 3176 3176 3176 3176 3175 3175 3175 3174 3173 3173 3172 3172 3172 3171 3170 3169 3169 3168 3168 3167 3167 3166 3165 3164 3162 3161 3160 3159 3157 3156 3155 3155 3154 3153 3152
3156 3155 3155 3155 3155 3156 3157 3158 3160 3162 3164 3165 3167 3169 3169 3170 3170 3170 3171 3171 3172 3173 3174 3175 3175 3176 3176 3176 3176 3176 3176 3176 3176 3175 3175 3176 3176 3176 3176 3176 3176 3176 3176 3176 3176 3176 3176 3176 3176 3175 3175 3175 3175 3175 3175 3174 3174 3173 3172 3172 3171 3170 3170 3169 3169 3168 3167 3167 3167 3166 3165 3164 3163 3162 3161 3159 3158 3157 3155 3154 3153 3153 3152 3151 3151
3155 3155 3155 3155 3155 3156 3157 3158 3160 3162 3163 3164 3166 3168 3169 3169 3169 3169 3170 3170 3171 3172 3173 3174 3174 3174 3175 3175 3175 3175 3175 3175 3175 3175 3175 3175 3175 3175 3175 3175 3175 3175 3175 3175 3175 3175 3175 3175 3175 3175 3174 3174 3174 3174 3173 3173 3172 3172 3172 3171 3170 3169 3168 3168 3167 3167 3166 3166 3165 3165 3164 3163 3162 3161 3159 3158 3156 3155 3154 3152 3152 3151 3151 3150 3149
3155 3155 3154 3155 3156 3157 3158 3159 3160 3161 3163 3164 3165 3167 3168 3168 3168 3169 3169 3169 3170 3171 3172 3172 3173 3174 3174 3175 3175 3174 3175 3175 3174 3174 3174 3174 3174 3174 3174 3175 3175 3175 3175 3175 3175 3175 3174 3174 3174 3174 3174 3173 3173 3173 3172 3172 3172 3171 3171 3170 3169 3168 3167 3166 3165 3165 3165 3164 3164 3163 3162 3161 3160 3159 3158 3156 3155 3153 3152 3151 3150 3150 3149 3149 3148
3155 3155 3155 3155 3156 3158 3158 3159 3160 3161 3162 3164 3165 3166 3166 3167 3167 3168 3168 3169 3169 3170 3171 3171 3172 3173 3174 3174 3174 3174 3174 3174 3174 3174 3174 3174 3174 3174 3174 3174 3174 3174 3174 3174 3174 3174 3174 3174 3173 3173 3173 3172 3172 3172 3171 3171 3171 3170 3170 3169 3169 3168 3167 3165 3164 3164 3164 3163 3162 3161 3160 3160 3159 3157 3156 3154 3153 3151 3150 3149 3148 3148 3148 3147 3147
3154 3154 3154 3155 3156 3157 3158 3158 3159 3160 3162 3163 3164 3164 3164 3165 3166 3167 3168 3168 3169 3169 3170 3170 3172 3173 3173 3173 3173 3173 3173 3174 3173 3173 3173 3173 3173 3173 3173 3173 3173 3173 3173 3173 3173 3173 3173 3173 3172 3172 3172 3171 3171 3171 3170 3170 3169 3169 3169 3168 3168 3167 3166 3165 3164 3163 3162 3162 3161 3160 3159 3158 3157 3155 3154 3153 3151 3150 3148 3147 3147 3147 3147 3146 3145
3152 3153 3153 3154 3155 3156 3156 3157 3159 3160 3162 3163 3163 3163 3163 3164 3165 3166 3167 3168 3168 3169 3169 3170 3171 3172 3172 3173 3173 3173 3173 3173 3173 3173 3173 3173 3173 3173 3173 3173 3173 3173 3172 3172 3172 3172 3172 3172 3172 3171 3171 3171 3170 3170 3170 3169 3169 3168 3168 3167 3167 3166 3165 3164 3163 3162 3161 3160 3159 3159 3157 3156 3155 3154 3152 3151 3150 3148 3147 3146 3146 3146 3145 3144 3143
3151 3151 3152 3152 3154 3155 3156 3157 3158 3160 3161 3162 3162 3163 3163 3164 3164 3165 3166 3167 3167 3168 3169 3169 3171 3172 3172 3172 3172 3173 3173 3173 3173 3173 3173 3172 3172 3172 3173 3173 3172 3172 3172 3172 3172 3172 3172 3171 3171 3171 3170 3170 3170 3170 3169 3169 3168 3167 3167 3166 3166 3165 3164 3163 3162 3161 3160 3159 3158 3157 3156 3155 3153 3152 3151 3150 3149 3147 3146 3145 3145 3144 3143 3143 3140
3150 3151 3151 3152 3153 3154 3155 3157 3158 3160 3160 3161 3162 3163 3163 3163 3164 3165 3165 3166 3167 3167 3168 3169 3170 3171 3171 3171 3172 3172 3172 3172 3172 3172 3172 3172 3172 3172 3172 3173 3172 3172 3172 3172 3172 3172 3172 3171 3171 3170 3170 3169 3169 3169 3168 3168 3167 3166 3165 3165 3164 3164 3163 3162 3161 3160 3159 3158 3157 3156 3155 3154 3152 3151 3150 3149 3148 3146 3145 3144 3143 3142 3141 3141 3139
3150 3150 3151 3151 3152 3153 3154 3157 3158 3159 3160 3161 3161 3162 3162 3163 3163 3163 3164 3165 3165 3166 3167 3168 3169 3170 3170 3170 3171 3171 3171 3172 3172 3172 3172 3171 3171 3172 3172 3172 3172 3172 3172 3172 3172 3172 3171 3170 3170 3170 3169 3169 3168 3168 3167 3166 3166 3165 3164 3164 3163 3162 3162 3161 3160 3158 3157 3156 3155 3154 3153 3152 3151 3150 3149 3148 3147 3146 3145 3143 3142 3141 3140 3139 3138
3150 3150 3150 3151 3152 3152 3154 3156 3157 3158 3159 3160 3161 3161 3162 3162 3162 3163 3163 3164 3164 3165 3166 3167 3168 3169 3169 3169 3169 3170 3170 3171 3171 3171 3171 3171 3171 3172 3172 3172 3172 3172 3172 3172 3171 3171 3170 3169 3169 3169 3169 3168 3167 3167 3166 3165 3165 3164 3164 3163 3162 3162 3161 3160 3159 3158 3157 3155 3154 3153 3152 3151 3150 3150 3148 3147 3146 3145 3144 3142 3141 3140 3138 3137 3136
3149 3150 3151 3151 3152 3153 3154 3155 3156 3157 3159 3159 3160 3160 3161 3161 3162 3162 3163 3163 3164 3164 3165 3166 3167 3168 3168 3168 3168 3169 3169 3169 3170 3170 3170 3170 3171 3171 3172 3172 3172 3172 3172 3171 3171 3170 3170 3169 3169 3168 3168 3167 3166 3166 3165 3164 3164 3163 3163 3162 3161 3161 3160 3159 3158 3157 3156 3155 3154 3153 3152 3151 3150 3149 3147 3146 3145 3143 3142 3141 3140 3138 3137 3135 3135
3148 3149 3150 3151 3151 3152 3153 3154 3155 3156 3157 3158 3159 3159 3160 3161 3161 3162 3163 3163 3163 3164 3164 3165 3166 3166 3167 3167 3167 3168 3168 3168 3169 3169 3169 3170 3170 3171 3171 3172 3172 3172 3171 3171 3170 3170 3169 3169 3168 3168 3167 3166 3165 3165 3164 3164 3164 3163 3162 3161 3161 3160 3159 3159 3158 3157 3156 3154 3153 3152 3151 3150 3149 3147 3146 3145 3143 3142 3140 3139 3138 3137 3135 3134 3133
3146 3147 3148 3149 3150 3151 3152 3153 3154 3155 3156 3157 3158 3159 3159 3160 3161 3162 3162 3162 3162 3163 3163 3164 3165 3165 3165 3166 3167 3167 3167 3167 3168 3168 3168 3169 3170 3171 3171 3171 3172 3172 3171 3171 3170 3169 3169 3168 3168 3167 3166 3165 3164 3164 3164 3164 3163 3162 3162 3161 3160 3159 3159 3158 3157 3156 3155 3153 3152 3151 3150 3149 3148 3147 3145 3144 3142 3141 3139 3138 3137 3135 3134 3132 3131
3144 3145 3146 3148 3149 3150 3151 3152 3153 3153 3154 3156 3157 3158 3158 3159 3160 3161 3161 3161 3162 3162 3163 3163 3164 3164 3164 3165 3166 3166 3166 3166 3167 3167 3167 3168 3169 3170 3171 3171 3172 3172 3171 3170 3169 3168 3168 3167 3166 3165 3164 3164 3164 3163 3163 3163 3162 3162 3161 3160 3160 3159 3158 3157 3156 3155 3154 3153 3151 3150 3149 3148 3147 3146 3144 3143 3141 3139 3138 3137 3135 3134 3132 3131 3129
3142 3143 3145 3146 3148 3149 3150 3151 3151 3152 3153 3154 3155 3156 3157 3158 3159 3160 3160 3161 3161 3161 3162 3162 3163 3163 3163 3164 3165 3165 3166 3166 3166 3166 3167 3168 3169 3169 3170 3170 3171 3170 3170 3169 3168 3168 3167 3166 3165 3164 3163 3163 3163 3163 3162 3162 3161 3161 3160 3159 3159 3158 3157 3156 3155 3154 3153 3152 3151 3149 3148 3147 3146 3145 3143 3142 3140 3138 3137 3135 3134 3133 3132 3130 3129
3141 3142 3143 3145 3147 3148 3149 3149 3149 3150 3151 3152 3154 3155 3156 3157 3158 3158 3159 3160 3160 3161 3161 3161 3161 3162 3162 3163 3164 3165 3165 3165 3166 3166 3166 3167 3167 3168 3168 3169 3169 3169 3168 3167 3167 3167 3166 3164 3163 3162 3162 3162 3163 3162 3162 3161 3160 3160 3159 3158 3158 3157 3157 3156 3154 3153 3152 3151 3150 3149 3148 3147 3145 3144 3142 3140 3139 3137 3135 3134 3133 3131 3130 3129 3128
3140 3141 3142 3143 3145 3146 3147 3147 3148 3148 3149 3150 3152 3153 3155 3156 3156 3157 3157 3158 3159 3159 3159 3160 3160 3161 3162 3163 3164 3164 3165 3165 3165 3166 3166 3166 3166 3167 3167 3167 3168 3167 3167 3166 3166 3165 3164 3162 3161 3161 3161 3162 3162 3161 3161 3160 3160 3159 3158 3157 3157 3157 3156 3155 3153 3152 3151 3151 3150 3148 3147 3146 3144 3143 3141 3139 3137 3135 3133 3132 3131 3130 3129 3127 3126
3139 3139 3140 3142 3143 3144 3145 3145 3146 3147 3147 3149 3150 3152 3153 3154 3155 3155 3156 3156 3157 3157 3158 3159 3160 3160 3162 3163 3163 3164 3164 3165 3165 3165 3165 3165 3165 3166 3166 3166 3166 3166 3165 3165 3165 3164 3162 3161 3161 3161 3161 3161 3160 3160 3160 3159 3159 3158 3157 3157 3156 3155 3154 3153 3152 3151 3150 3149 3149 3147 3146 3144 3143 3142 3140 3138 3135 3133 3132 3131 3129 3128 3127 3125 3124
3138 3138 3139 3140 3141 3142 3143 3144 3144 3145 3146 3147 3148 3149 3151 3151 3152 3153 3154 3155 3155 3156 3157 3158 3159 3160 3161 3162 3162 3163 3164 3164 3164 3165 3165 3165 3165 3165 3165 3165 3165 3164 3164 3164 3163 3162 3161 3161 3161 3161 3160 3160 3159 3159 3159 3158 3157 3157 3156 3156 3155 3155 3154 3153 3152 3150 3149 3148 3148 3147 3145 3143 3142 3140 3139 3137 3134 3131 3129 3128 3127 3126 3124 3123 3122
3136 3137 3138 3139 3140 3141 3142 3142 3143 3144 3145 3145 3146 3147 3148 3149 3150 3151 3152 3153 3154 3155 3157 3158 3159 3160 3161 3161 3162 3163 3163 3163 3164 3164 3164 3164 3164 3164 3164 3164 3164 3163 3163 3162 3162 3161 3161 3161 3161 3160 3159 3159 3158 3158 3157 3157 3156 3156 3155 3155 3154 3154 3153 3152 3151 3149 3148 3147 3146 3145 3143 3141 3140 3138 3136 3134 3132 3129 3127 3126 3125 3124 3122 3121 3119
3135 3136 3137 3138 3139 3140 3140 3141 3141 3142 3143 3143 3145 3145 3146 3147 3149 3150 3151 3152 3153 3155 3156 3158 3159 3159 3160 3161 3162 3162 3163 3163 3163 3163 3163 3163 3163 3163 3163 3163 3163 3162 3162 3161 3161 3161 3161 3161 3160 3160 3159 3158 3158 3157 3156 3155 3155 3154 3154 3153 3153 3152 3152 3151 3150 3149 3147 3145 3144 3143 3142 3139 3137 3135 3133 3131 3128 3126 3124 3123 3121 3120 3120 3118 3116
3134 3135 3136 3137 3138 3139 3139 3139 3140 3140 3141 3142 3143 3143 3144 3146 3148 3149 3151 3152 3153 3154 3156 3157 3158 3159 3160 3161 3161 3162 3162 3163 3163 3163 3163 3163 3163 3163 3162 3162 3162 3161 3161 3161 3161 3161 3161 3160 3160 3159 3158 3157 3157 3156 3155 3154 3153 3153 3152 3152 3152 3151 3150 3149 3148 3147 3146 3144 3142 3141 3139 3137 3134 3132 3130 3128 3126 3122 3121 3120 3118 3117 3117 3115 3113
3133 3134 3135 3136 3137 3138 3138 3138 3138 3138 3139 3140 3139 3140 3143 3145 3146 3148 3150 3151 3152 3154 3155 3156 3157 3158 3159 3160 3161 3161 3162 3162 3162 3162 3162 3162 3162 3162 3162 3162 3161 3161 3161 3161 3161 3161 3160 3160 3159 3158 3157 3156 3156 3155 3154 3154 3153 3152 3151 3151 3150 3149 3148 3147 3146 3145 3144 3143 3141 3139 3137 3135 3131 3128 3126 3124 3122 3120 3118 3116 3115 3114 3113 3111 3109
3131 3132 3134 3135 3136 3136 3137 3136 3135 3135 3137 3138 3138 3140 3142 3143 3145 3147 3149 3150 3152 3153 3154 3156 3157 3158 3159 3160 3161 3161 3161 3161 3161 3161 3162 3162 3162 3162 3162 3161 3161 3161 3161 3161 3160 3160 3160 3159 3158 3157 3156 3155 3155 3154 3153 3152 3152 3151 3150 3149 3148 3147 3146 3145 3144 3142 3141 3140 3140 3138 3136 3133 3130 3125 3122 3120 3118 3116 3115 3114 3112 3110 3109 3108 3106
3130 3131 3133 3134 3135 3135 3136 3135 3134 3136 3139 3140 3139 3140 3140 3141 3144 3146 3148 3150 3151 3152 3154 3155 3156 3158 3159 3160 3160 3161 3161 3161 3161 3161 3161 3161 3161 3161 3161 3161 3160 3160 3160 3160 3159 3159 3158 3158 3157 3156 3155 3154 3153 3152 3152 3151 3150 3149 3148 3147 3145 3144 3143 3142 3140 3139 3137 3136 3136 3135 3134 3133 3130 3125 3121 3118 3116 3113 3112 3110 3109 3107 3106 3104 3102
3129 3130 3131 3133 3134 3134 3135 3135 3135 3138 3141 3141 3140 3139 3138 3139 3142 3145 3148 3149 3151 3152 3154 3155 3156 3157 3158 3159 3160 3160 3160 3160 3160 3160 3160 3160 3160 3160 3160 3160 3159 3159 3159 3159 3158 3157 3157 3156 3155 3154 3153 3152 3151 3150 3149 3149 3148 3147 3146 3144 3143 3141 3140 3139 3137 3135 3133 3132 3130 3130 3129 3128 3128 3125 3121 3117 3115 3112 3110 3108 3106 3104 3102 3101 3099
3128 3129 3130 3131 3132 3133 3134 3135 3136 3138 3139 3140 3140 3141 3140 3141 3143 3146 3147 3149 3151 3152 3153 3155 3156 3157 3158 3159 3159 3160 3160 3160 3160 3160 3160 3160 3159 3159 3159 3159 3158 3158 3158 3157 3157 3156 3155 3154 3153 3152 3151 3150 3149 3148 3147 3146 3145 3144 3143 3142 3140 3139 3137 3136 3134 3132 3130 3128 3127 3125 3124 3123 3122 3121 3119 3116 3112 3110 3108 3105 3103 3101 3100 3098 3096